Regional Weather Roundup
Issued by NWS

Home | Current Version | Previous Version | Graphics & Text | Print | Product List | Glossary Off
Versions: 1 2 3 4 5 6 7 8 9 10 11 12 13 14 15 16 17 18 19 20 21 22 23 24 25 26 27 28 29 30 31 32 33 34 35 36 37 38 39 40 41 42 43 44 45 46 47 48 49 50

000
ASUS43 KFSD 300310
RWRSD

WEATHER ROUNDUP FOR SOUTH DAKOTA
NATIONAL WEATHER SERVICE SIOUX FALLS SD
1000 PM CDT THU SEP 29 2016

NOTE: "FAIR" INDICATES FEW OR NO CLOUDS BELOW 12,000 FEET WITH NO
SIGNIFICANT WEATHER AND/OR OBSTRUCTIONS TO VISIBILITY.


SDZ001>005-009-010-012>017-300400-
NORTHWEST AND NORTH CENTRAL SOUTH DAKOTA

CITY           SKY/WX    TMP DP  RH WIND       PRES   REMARKS
BUFFALO          N/A     69  41  36 SE24      30.07S
FAITH            N/A     61  42  49 SE22G29   30.19S
MOBRIDGE       CLEAR     59  43  55 SE15      30.24S
$$

SDZ012>016-024>037-041>051-057-063-072>074-300400-
SOUTHWEST AND SOUTH CENTRAL SOUTH DAKOTA

CITY           SKY/WX    TMP DP  RH WIND       PRES   REMARKS
RAPID CTY ARPT PTCLDY    60  45  57 S7        30.19R
PIERRE         CLEAR     59  45  59 SE15      30.26R
CUSTER         CLOUDY    61  41  47 S3        30.31R
ELLSWORTH AFB  PTCLDY    63  45  51 S10       30.18R
PHILIP         CLEAR     59  42  53 E12       30.21R
PINE RIDGE     CLEAR     67  41  38 S16G24    30.21S
WINNER         FAIR      53  45  74 SE12      30.29R
$$

SDZ004>011-016>023-039-040-300400-
NORTHEAST SOUTH DAKOTA

CITY           SKY/WX    TMP DP  RH WIND       PRES   REMARKS
ABERDEEN       CLEAR     50  43  77 SE8       30.33S
WATERTOWN      CLEAR     55  46  71 SE7       30.36S
BROOKINGS      CLEAR     53  47  79 SE6       30.36S
SISSETON         N/A     47  44  90 SE6       30.36S
$$

SDZ017-020-022-023-036>040-048>070-300400-
SOUTHEAST SOUTH DAKOTA

CITY           SKY/WX    TMP DP  RH WIND       PRES   REMARKS
SIOUX FALLS    CLEAR     53  47  79 E3        30.36R
HURON          CLEAR     53  46  77 SE7       30.32F
CHAMBERLAIN    CLEAR     54  48  81 SE8       30.31R
MITCHELL       CLEAR     52  45  77 SE6       30.34S
YANKTON        CLEAR     54  46  76 E3        30.33S
$$

ABBREVIATIONS USED IN REMARKS
   TC - TEMPERATURE IN CELSIUS
  WCI - WIND CHILL INDEX
   HX - HEAT INDEX
  VSB - VISIBILITY





USA.gov is the U.S. government's official web portal to all federal, state and local government web resources and services.